Regional Weather Roundup
Issued by NWS

Home | Current Version | Previous Version | Graphics & Text | Print | Product List | Glossary On
Versions: 1 2 3 4 5 6 7 8 9 10 11 12 13 14 15 16 17 18 19 20 21 22 23 24 25 26 27 28 29 30 31 32 33 34 35 36 37 38 39 40 41 42 43 44 45 46 47 48 49 50
000
ASUS43 KTOP 300608
RWRKS

WEATHER ROUNDUP FOR KANSAS
NATIONAL WEATHER SERVICE GOODLAND KS
100 AM CDT SAT AUG 30 2014

NOTE:  "FAIR" INDICATES FEW OR NO CLOUDS BELOW 12,000 FEET WITH NO
SIGNIFICANT WEATHER AND/OR OBSTRUCTIONS TO VISIBILITY.

KSZ001>006-013>018-027>032-041>047-300700-
NORTHWEST KANSAS

CITY           SKY/WX    TMP DP  RH WIND       PRES   REMARKS
GOODLAND       PTCLDY    63  56  78 N8        30.08R
6HR MIN TEMP:  63; 6HR MAX TEMP:  82;

HAYS           FAIR      63  54  72 CALM      29.97R
HILL CITY      FAIR      64  60  87 CALM      29.97S
6HR MIN TEMP:  64; 6HR MAX TEMP:  86;

RUSSELL        FAIR      69  57  65 W5        29.93S
6HR MIN TEMP:  68; 6HR MAX TEMP:  85;

$$

KSZ061>065-074>080-084>089-300700-
SOUTHWEST KANSAS

CITY           SKY/WX    TMP DP  RH WIND       PRES   REMARKS
DODGE CITY     FAIR      66  54  65 CALM      30.00S
6HR MIN TEMP:  66; 6HR MAX TEMP:  85;

ELKHART          N/A     66  52  61 S8          N/A
GARDEN CITY    FAIR      65  55  70 CALM      30.01R
6HR MIN TEMP:  64; 6HR MAX TEMP:  84;

GREAT BEND     FAIR      66  57  72 NW5       29.96R
LIBERAL        FAIR      64  48  55 SW3       30.04R
PRATT          FAIR      66  59  77 CALM      29.96S
$$

KSZ066>073-081>083-090>101-300700-
SOUTHEAST KANSAS

CITY           SKY/WX    TMP DP  RH WIND       PRES   REMARKS
CHANUTE        FAIR      72  67  84 S7        29.91S
6HR MIN TEMP:  72; 6HR MAX TEMP:  85;

COFFEYVILLE    FAIR      73  70  90 S5        29.91R
6HR MIN TEMP:  73; 6HR MAX TEMP:  85;

HUTCHINSON     FAIR      68  65  90 CALM      29.93S
6HR MIN TEMP:  66; 6HR MAX TEMP:  82;

MEDICINE LODGE   N/A     68  66  93 N3        29.93R
NEWTON         FAIR      70  63  78 SW5       29.95S
PARSONS        FAIR      72  68  87 CALM      29.93R
6HR MIN TEMP:  72; 6HR MAX TEMP:  84;

WICHITA INTL   FAIR      69  66  90 S3        29.92R
6HR MIN TEMP:  69; 6HR MAX TEMP:  77; 6HR PCP:  0.07;

WICHITA JABRA  FAIR      70  66  87 S6        29.92R
6HR MIN TEMP:  70; 6HR MAX TEMP:  79; 6HR PCP: TRACE;

WICHITA MCCONL FAIR      70  70 100 S5        29.93R
WINFIELD       FAIR      71  68  90 S6        29.92S
6HR MIN TEMP:  70; 6HR MAX TEMP:  80;

$$

KSZ007>012-019>026-033>040-048>060-102>105-300700-
NORTHEAST KANSAS

CITY           SKY/WX    TMP DP  RH WIND       PRES   REMARKS
CONCORDIA      FAIR      68  65  90 W5        29.91R
6HR MIN TEMP:  68; 6HR MAX TEMP:  81;

EMPORIA        FAIR      70  66  87 SW5       29.90S
6HR MIN TEMP:  70; 6HR MAX TEMP:  84;

LAWRENCE       MOCLDY    74  67  78 N6        29.88R
6HR MIN TEMP:  73; 6HR MAX TEMP:  89; 6HR PCP:  0.18;

MANHATTAN      FAIR      72  66  81 W7        29.89R
6HR MIN TEMP:  69; 6HR MAX TEMP:  86;

MARYSVILLE     FAIR      66  64  94 CALM      29.88S
OLATHE IND     FAIR      75  66  73 SW13      29.90R
6HR MIN TEMP:  73; 6HR MAX TEMP:  84;

OLATHE EXE     FAIR      75  65  70 SW7       29.89R
6HR MIN TEMP:  72; 6HR MAX TEMP:  81;

SALINA         FAIR      69  64  84 SW5       29.91R
6HR MIN TEMP:  68; 6HR MAX TEMP:  87;

TOPEKA BILLARD FAIR      74  70  87 SW5       29.87F
6HR MIN TEMP:  72; 6HR MAX TEMP:  80; 6HR PCP:  0.08;

TOPEKA FORBES  FAIR      72  67  84 SW7       29.88S
6HR MIN TEMP:  72; 6HR MAX TEMP:  81; 6HR PCP:  0.18;

$$



USA.gov is the U.S. government's official web portal to all federal, state and local government web resources and services.